This is the latest recevied weather packets stored in our database for station/object IW3HBX-3. If no packets are shown the sender has not sent any weather packets the latest 10 day(s).
| Time | Temp. | Humidity | Pressure | Rain* | Wind** | Luminosity | Snow |
|---|---|---|---|---|---|---|---|
| 1776937818 | 17.78° C | 41% | 1023.4 hPa | 0 mm | - | 731 W/m² | - |
| 1776937518 | 17.78° C | 42% | 1023.7 hPa | 0 mm | - | 720 W/m² | - |
| 1776937218 | 17.78° C | 42% | 1023.5 hPa | 0 mm | - | 712 W/m² | - |
| 1776936919 | 17.78° C | 42% | 1023.6 hPa | 0 mm | - | 701 W/m² | - |
| 1776936619 | 18.33° C | 41% | 1023.6 hPa | 0 mm | - | 695 W/m² | - |
| 1776936319 | 17.22° C | 42% | 1023.7 hPa | 0 mm | - | 682 W/m² | - |
| 1776936019 | 17.22° C | 42% | 1023.8 hPa | 0 mm | - | 669 W/m² | - |
| 1776935719 | 17.78° C | 42% | 1023.8 hPa | 0 mm | - | 657 W/m² | - |
| 1776935420 | 17.22° C | 44% | 1023.9 hPa | 0 mm | - | 649 W/m² | - |
| 1776935120 | 17.22° C | 44% | 1024 hPa | 0 mm | - | 637 W/m² | - |
| 1776934820 | 17.22° C | 45% | 1024 hPa | 0 mm | - | 635 W/m² | - |
| 1776934520 | 16.67° C | 45% | 1024.1 hPa | 0 mm | - | 623 W/m² | - |
| 1776934264 | 17.22° C | 43% | 1024.1 hPa | 0 mm | - | 612 W/m² | - |
| 1776934221 | 17.22° C | 43% | 1024.1 hPa | 0 mm | - | 612 W/m² | - |
| 1776933921 | 17.22° C | 45% | 1024.2 hPa | 0 mm | - | 608 W/m² | - |
| 1776933621 | 16.67° C | 49% | 1024.2 hPa | 0 mm | - | 596 W/m² | - |
| 1776933321 | 17.22° C | 50% | 1024.1 hPa | 0 mm | - | 583 W/m² | - |
| 1776933022 | 16.67° C | 47% | 1024.2 hPa | 0 mm | - | 569 W/m² | - |
| 1776932722 | 17.22° C | 49% | 1024.2 hPa | 0 mm | - | 556 W/m² | - |
| 1776932422 | 17.22° C | 49% | 1024.3 hPa | 0 mm | - | 547 W/m² | - |
| 1776932122 | 17.78° C | 49% | 1024.4 hPa | 0 mm | - | 530 W/m² | - |
| 1776931823 | 17.22° C | 52% | 1024.5 hPa | 0 mm | - | 515 W/m² | - |
| 1776931523 | 17.22° C | 52% | 1024.5 hPa | 0 mm | - | 499 W/m² | - |
| 1776931223 | 16.67° C | 53% | 1024.6 hPa | 0 mm | - | 483 W/m² | - |
| 1776930923 | 16.11° C | 54% | 1024.6 hPa | 0 mm | - | 466 W/m² | - |
* Rain latest hour (hover to see other rain measurements)
** Current wind speed in m/s (hover to see current wind gust speed)